ONEWEB-0059, 45162

Orbit data source: Space-Track

ONEWEB-0059, 45162 is a payload satellite owned by One Web (UK) in LEO that was launched on Thu, 06 Feb 2020 UTC via a SOYUZ-2-1B launch vehicle from the Tyuratam Missile And Space Complex (TTMTR). Payload-class satellites include a variety of spacecraft equipped with specific instruments for various scientific and technological missions. These include communications satellites like Starlink; space stations such as the ISS; scientific satellites like the Hubble; Earth observation satellites from companies like Planet Labs, Umbra, and HawkEye 360; GPS; miniature CubeSats for education and research; and military/defense satellites.

Loading next visibility...
Identifier
45162, 2020-008AH
Orbit
LEO
Country
Flag of UKUK
Related business
Manufacturer
One Web
Mission
Operational Commercial Communications
Bus & Motor
ARROW, Unknown motor
Mass
148 kg wet, ~140 kg dry
Launch date (UTC)
2020-02-06 (6 years ago)
Launch vehicle
SOYUZ-2-1B
Launch site
Tyuratam Missile And Space Complex (TTMTR)
Object type
Payload
Rocket body
Debris
Shape & HBR
Trap Box + 2 Pan, 2.5 m
Radar Cross Section
2.957 m², Large (>1 m²)

Expand to show TLE details & history
Last TLE update: 10 hours ago

TLE from 10 hours ago
0 ONEWEB-0059
1 45162U 20008AH  25261.90902883  .00000568  00000-0  15895-2 0  9992
2 45162  87.8734  90.3826 0001566  88.0980 272.0327 13.10370102272794
Epoch: 2025-09-18T21:49Z
TLE epoch observation values (Epoch: 2025-09-18T21:49:00.09Z)
Latitude
-0.00001°
Longitude
125.06836°
Altitude
1,224.573 km
Speed
7.242 km/s
True Right ascension
06h 01m 31s
True Declination
0° 00' 00"
Sunlit
Object was in daylight at epoch
Visualization orbit readout
Latitude
Unknown
Longitude
Unknown
Altitude
Unknown
Speed
Unknown
Apparent Right ascension
Unknown
Apparent Declination
Unknown
Sunlit
N/A
Visualization observer readout
Local Sidereal Time
00:36:35
Azimuth
Unknown
Elevation
Unknown
Doppler factor
Unknown
Orbital elements
Apogee altitude
1,220.037 km
Perigee altitude
1,217.658 km
Semi-major axis
7,596.985 km
Eccentricity
0.00016
Inclination
87.8734°
RAAN
90.3826°
Arg. of periapsis
88.098°
True anomaly
272.01477°
Mean anomaly
272.0327°
Eccentric anomaly
272.02373°
Mean motion
3.27779 °/min
Orbital period
109.83 mins
BSTAR
0.0015895
Loading maneuver chart data...
Computing Atmospheric mass density...
Loading historical data...
Loading historical data...
Loading historical data...
Loading historical data...
Loading historical data...
Loading historical data...
Loading historical data...

Documentation

Showing up to 5 results
|